LHX8RY EDDM-EGLL

Flight info

Callsign LHX8RY
Flight time 1h 29m
Altitude 34000
Route GIVMI1N GIVMI Y101 INBED DCT REKDI DCT LOHRE DCT ADKUV DCT DENUT L608 LOGAN
Aircraft A320/M-SDE3FGHIRWY/LB1

Departure

Time 2026-05-06 16:15
Airport Munich Airport (EDDM)

Arrival

Time 2026-05-06 17:45
Airport London Heathrow Airport (EGLL)
Time Latitude Longitude Altitude Speed Heading
2026-05-06 15:37 48.35694 11.79706 1485 ft 0 kts 83°
2026-05-06 15:38 48.35693 11.79694 1471 ft 0 kts 83°
2026-05-06 16:01 48.35693 11.79690 1485 ft 3 kts 83°
2026-05-06 16:01 48.35690 11.79651 1481 ft 4 kts 83°
2026-05-06 16:02 48.35687 11.79616 1475 ft 2 kts 83°
2026-05-06 16:02 48.35682 11.79580 1478 ft 4 kts 62°
2026-05-06 16:02 48.35666 11.79555 1474 ft 4 kts
2026-05-06 16:02 48.35643 11.79557 1479 ft 2 kts 353°
2026-05-06 16:03 48.35641 11.79558 1478 ft 0 kts 353°
2026-05-06 16:07 48.35664 11.79553 1475 ft 9 kts 353°
2026-05-06 16:07 48.35738 11.79541 1472 ft 12 kts 353°
2026-05-06 16:07 48.35824 11.79526 1485 ft 13 kts 353°
2026-05-06 16:08 48.35919 11.79509 1481 ft 15 kts 353°
2026-05-06 16:08 48.36039 11.79488 1485 ft 19 kts 353°
2026-05-06 16:08 48.36156 11.79467 1481 ft 13 kts 353°
2026-05-06 16:08 48.36219 11.79542 1485 ft 15 kts 81°
2026-05-06 16:09 48.36233 11.79716 1479 ft 19 kts 83°
2026-05-06 16:09 48.36250 11.79933 1479 ft 23 kts 83°
2026-05-06 16:09 48.36269 11.80180 1480 ft 25 kts 83°
2026-05-06 16:09 48.36289 11.80443 1485 ft 26 kts 83°
2026-05-06 16:10 48.36311 11.80718 1476 ft 27 kts 83°
2026-05-06 16:10 48.36332 11.81001 1485 ft 28 kts 83°
2026-05-06 16:10 48.36355 11.81295 1476 ft 29 kts 83°
2026-05-06 16:10 48.36378 11.81598 1479 ft 30 kts 83°
2026-05-06 16:11 48.36398 11.81853 1482 ft 17 kts 84°
2026-05-06 16:11 48.36402 11.81981 1485 ft 10 kts 65°
2026-05-06 16:11 48.36461 11.81999 1473 ft 9 kts 355°
2026-05-06 16:11 48.36518 11.81991 1473 ft 8 kts 354°
2026-05-06 16:12 48.36560 11.81983 1485 ft 0 kts 352°
2026-05-06 16:13 48.36579 11.81979 1485 ft 6 kts 352°
2026-05-06 16:13 48.36618 11.81971 1480 ft 10 kts 352°
2026-05-06 16:13 48.36675 11.81933 1475 ft 8 kts 281°
2026-05-06 16:14 48.36673 11.81912 1477 ft 0 kts 263°
2026-05-06 16:14 48.36664 11.81794 1477 ft 41 kts 263°
2026-05-06 16:14 48.36603 11.81002 1481 ft 108 kts 263°
2026-05-06 16:14 48.36495 11.79601 1479 ft 159 kts 264°
2026-05-06 16:15 48.36363 11.77902 2068 ft 163 kts 264°
2026-05-06 16:15 48.36215 11.76215 2789 ft 167 kts 264°
2026-05-06 16:15 48.36073 11.74381 3174 ft 188 kts 264°
2026-05-06 16:15 48.35943 11.72312 3554 ft 208 kts 265°
2026-05-06 16:16 48.35832 11.70064 4000 ft 224 kts 266°
2026-05-06 16:16 48.35963 11.67664 4546 ft 238 kts 288°
2026-05-06 16:16 48.36780 11.65453 5224 ft 250 kts 305°
2026-05-06 16:16 48.37808 11.63282 5998 ft 258 kts 302°
2026-05-06 16:17 48.38800 11.61013 6931 ft 259 kts 301°
2026-05-06 16:17 48.39778 11.58788 8100 ft 250 kts 301°
2026-05-06 16:17 48.40784 11.56595 8772 ft 267 kts 302°
2026-05-06 16:17 48.42147 11.54515 9139 ft 294 kts 325°
2026-05-06 16:18 48.44056 11.53143 9672 ft 309 kts 335°
2026-05-06 16:18 48.46058 11.51891 10411 ft 317 kts 335°
2026-05-06 16:18 48.48134 11.50568 10813 ft 335 kts 334°
2026-05-06 16:18 48.50335 11.49167 11234 ft 349 kts 335°
2026-05-06 16:19 48.52592 11.47734 11995 ft 352 kts 334°
2026-05-06 16:19 48.54861 11.46294 12780 ft 354 kts 334°
2026-05-06 16:19 48.57136 11.44846 13528 ft 357 kts 334°
2026-05-06 16:19 48.59439 11.43375 14163 ft 361 kts 333°
2026-05-06 16:20 48.61770 11.41878 14776 ft 365 kts 333°
2026-05-06 16:20 48.64116 11.40368 15386 ft 369 kts 333°
2026-05-06 16:20 48.66493 11.38831 15964 ft 374 kts 333°
2026-05-06 16:20 48.68893 11.37270 16580 ft 378 kts 332°
2026-05-06 16:21 48.71211 11.35375 17134 ft 378 kts 322°
2026-05-06 16:21 48.73403 11.33148 17714 ft 382 kts 321°
2026-05-06 16:21 48.75622 11.30899 18290 ft 385 kts 321°
2026-05-06 16:21 48.77853 11.28640 18867 ft 386 kts 321°
2026-05-06 16:22 48.80095 11.26371 19393 ft 389 kts 321°
2026-05-06 16:22 48.82352 11.24083 19888 ft 392 kts 321°
2026-05-06 16:22 48.84731 11.21972 20386 ft 400 kts 330°
2026-05-06 16:22 48.87347 11.20452 20889 ft 407 kts 338°
2026-05-06 16:23 48.90010 11.19115 21376 ft 410 kts 338°
2026-05-06 16:23 48.92725 11.17751 21889 ft 413 kts 338°
2026-05-06 16:23 48.95466 11.16367 22379 ft 416 kts 338°
2026-05-06 16:23 48.98219 11.14969 22859 ft 419 kts 338°
2026-05-06 16:24 49.00998 11.13553 23356 ft 421 kts 338°
2026-05-06 16:24 49.03786 11.12130 23748 ft 424 kts 338°
2026-05-06 16:24 49.06591 11.10697 24129 ft 427 kts 338°
2026-05-06 16:24 49.09424 11.09251 24493 ft 430 kts 337°
2026-05-06 16:25 49.12268 11.07795 24900 ft 432 kts 338°
2026-05-06 16:25 49.15123 11.06334 25280 ft 434 kts 338°
2026-05-06 16:25 49.18003 11.04864 25630 ft 437 kts 338°
2026-05-06 16:25 49.20895 11.03387 25991 ft 440 kts 337°
2026-05-06 16:26 49.23807 11.01893 26384 ft 442 kts 337°
2026-05-06 16:26 49.26733 11.00388 26748 ft 444 kts 337°
2026-05-06 16:26 49.29672 10.98873 27093 ft 446 kts 337°
2026-05-06 16:26 49.32626 10.97349 27423 ft 449 kts 337°
2026-05-06 16:27 49.35532 10.95599 27743 ft 447 kts 329°
2026-05-06 16:27 49.38208 10.93211 28081 ft 444 kts 319°
2026-05-06 16:27 49.40598 10.90251 28407 ft 440 kts 310°
2026-05-06 16:27 49.42655 10.86813 28735 ft 436 kts 303°
2026-05-06 16:28 49.44565 10.83180 29069 ft 438 kts 303°
2026-05-06 16:28 49.46462 10.79575 29379 ft 440 kts 303°
2026-05-06 16:28 49.48420 10.75856 29708 ft 443 kts 304°
2026-05-06 16:28 49.50371 10.72155 29934 ft 447 kts 304°
2026-05-06 16:29 49.52334 10.68432 30169 ft 449 kts 304°
2026-05-06 16:29 49.54275 10.64741 30418 ft 450 kts 303°
2026-05-06 16:29 49.56251 10.60977 30684 ft 451 kts 303°
2026-05-06 16:29 49.58223 10.57209 30955 ft 452 kts 303°
2026-05-06 16:30 49.60193 10.53435 31292 ft 452 kts 303°
2026-05-06 16:30 49.61495 10.50935 31551 ft 450 kts 303°
2026-05-06 16:30 49.64110 10.45913 32093 ft 447 kts 302°
2026-05-06 16:30 49.66034 10.42160 32475 ft 444 kts 301°
2026-05-06 16:31 49.67857 10.38331 32866 ft 442 kts 298°
2026-05-06 16:31 49.69598 10.34421 33147 ft 442 kts 297°
2026-05-06 16:31 49.71289 10.30465 33461 ft 441 kts 296°
2026-05-06 16:31 49.72964 10.26499 33808 ft 440 kts 296°
2026-05-06 16:32 49.74641 10.22554 34107 ft 439 kts 297°
2026-05-06 16:32 49.76339 10.18626 34426 ft 438 kts 297°
2026-05-06 16:32 49.78049 10.14717 34721 ft 438 kts 298°
2026-05-06 16:32 49.79742 10.10872 34947 ft 438 kts 298°
2026-05-06 16:33 49.81484 10.06927 35179 ft 438 kts 298°
2026-05-06 16:33 49.83201 10.03028 35403 ft 439 kts 298°
2026-05-06 16:33 49.84916 9.99109 35630 ft 439 kts 299°
2026-05-06 16:34 49.88338 9.91234 35785 ft 440 kts 299°
2026-05-06 16:34 49.91749 9.83359 35789 ft 439 kts 299°
2026-05-06 16:35 49.95138 9.75543 35787 ft 439 kts 299°
2026-05-06 16:35 49.98538 9.67671 35790 ft 439 kts 298°
2026-05-06 16:36 50.01930 9.59791 35808 ft 439 kts 299°
2026-05-06 16:36 50.05309 9.51868 35795 ft 439 kts 297°
2026-05-06 16:37 50.07660 9.43259 35777 ft 430 kts 281°
2026-05-06 16:37 50.09223 9.34259 35777 ft 431 kts 281°
2026-05-06 16:38 50.10817 9.25261 35781 ft 431 kts 281°
2026-05-06 16:38 50.12412 9.16246 35811 ft 431 kts 282°
2026-05-06 16:39 50.13989 9.07215 35790 ft 432 kts 281°
2026-05-06 16:39 50.15559 8.98145 35786 ft 433 kts 281°
2026-05-06 16:40 50.17127 8.89059 35790 ft 434 kts 281°
2026-05-06 16:40 50.18694 8.79963 35797 ft 435 kts 281°
2026-05-06 16:41 50.20251 8.70834 35805 ft 435 kts 281°
2026-05-06 16:41 50.21799 8.61697 35809 ft 436 kts 281°
2026-05-06 16:42 50.23332 8.52612 35816 ft 435 kts 281°
2026-05-06 16:42 50.24874 8.43448 35817 ft 435 kts 281°
2026-05-06 16:43 50.26404 8.34304 35815 ft 435 kts 281°
2026-05-06 16:43 50.27925 8.25152 35819 ft 434 kts 281°
2026-05-06 16:44 50.29435 8.16005 35821 ft 435 kts 281°
2026-05-06 16:44 50.30941 8.06838 35819 ft 435 kts 281°
2026-05-06 16:45 50.32443 7.97660 35820 ft 436 kts 281°
2026-05-06 16:45 50.33938 7.88474 35823 ft 436 kts 281°
2026-05-06 16:46 50.35426 7.79279 35838 ft 436 kts 281°
2026-05-06 16:46 50.36907 7.70075 35837 ft 436 kts 281°
2026-05-06 16:47 50.38380 7.60866 35828 ft 435 kts 281°
2026-05-06 16:47 50.39834 7.51720 35827 ft 435 kts 281°
2026-05-06 16:48 50.41291 7.42506 35828 ft 435 kts 281°
2026-05-06 16:48 50.42736 7.33305 35849 ft 435 kts 281°
2026-05-06 16:49 50.44182 7.24095 35848 ft 434 kts 281°
2026-05-06 16:49 50.45616 7.14879 35845 ft 434 kts 281°
2026-05-06 16:50 50.47034 7.05664 35843 ft 434 kts 281°
2026-05-06 16:50 50.48448 6.96455 35846 ft 434 kts 281°
2026-05-06 16:51 50.49862 6.87237 35867 ft 434 kts 281°
2026-05-06 16:51 50.51587 6.78152 35866 ft 436 kts 288°
2026-05-06 16:52 50.53786 6.69271 35862 ft 436 kts 288°
2026-05-06 16:52 50.55971 6.60392 35858 ft 436 kts 288°
2026-05-06 16:53 50.58153 6.51495 35872 ft 436 kts 289°
2026-05-06 16:53 50.60326 6.42597 35870 ft 436 kts 289°
2026-05-06 16:54 50.62496 6.33696 35870 ft 435 kts 288°
2026-05-06 16:54 50.64649 6.24794 35869 ft 435 kts 288°
2026-05-06 16:55 50.66795 6.15879 35877 ft 435 kts 288°
2026-05-06 16:55 50.68939 6.06964 35880 ft 435 kts 288°
2026-05-06 16:56 50.71067 5.98084 35883 ft 436 kts 288°
2026-05-06 16:56 50.73200 5.89136 35881 ft 436 kts 288°
2026-05-06 16:57 50.75330 5.80161 35881 ft 437 kts 288°
2026-05-06 16:57 50.77111 5.72627 35881 ft 437 kts 288°
2026-05-06 16:58 50.79231 5.63635 35882 ft 437 kts 288°
2026-05-06 16:58 50.81340 5.54616 35891 ft 437 kts 288°
2026-05-06 16:59 50.83442 5.45607 35891 ft 437 kts 288°
2026-05-06 16:59 50.85541 5.36574 35891 ft 437 kts 288°
2026-05-06 17:00 50.87629 5.27548 35888 ft 437 kts 288°
2026-05-06 17:00 50.89715 5.18508 35888 ft 437 kts 288°
2026-05-06 17:01 50.91794 5.09473 35895 ft 436 kts 288°
2026-05-06 17:01 50.93849 5.00491 35891 ft 436 kts 288°
2026-05-06 17:02 50.95907 4.91445 35889 ft 436 kts 288°
2026-05-06 17:02 50.97965 4.82383 35890 ft 436 kts 288°
2026-05-06 17:03 51.00008 4.73329 35889 ft 436 kts 288°
2026-05-06 17:03 51.01024 4.68805 35731 ft 433 kts 285°
2026-05-06 17:03 51.02034 4.64313 35885 ft 433 kts 285°
2026-05-06 17:04 51.04054 4.55278 35910 ft 433 kts 285°
2026-05-06 17:04 51.06063 4.46271 35933 ft 432 kts 285°
2026-05-06 17:05 51.08068 4.37263 35934 ft 431 kts 285°
2026-05-06 17:05 51.10056 4.28268 35927 ft 431 kts 285°
2026-05-06 17:06 51.12029 4.19273 35923 ft 431 kts 285°
2026-05-06 17:06 51.13983 4.10325 35912 ft 430 kts 285°
2026-05-06 17:07 51.15945 4.01316 35910 ft 430 kts 285°
2026-05-06 17:07 51.17914 3.92245 35902 ft 430 kts 285°
2026-05-06 17:08 51.19868 3.83240 35902 ft 430 kts 285°
2026-05-06 17:08 51.21810 3.74220 35910 ft 430 kts 285°
2026-05-06 17:09 51.23867 3.65297 35904 ft 433 kts 293°
2026-05-06 17:09 51.26906 3.56939 35907 ft 436 kts 297°
2026-05-06 17:10 51.29999 3.48602 35922 ft 435 kts 297°
2026-05-06 17:10 51.33064 3.40274 35933 ft 434 kts 297°
2026-05-06 17:11 51.35737 3.31689 35951 ft 430 kts 288°
2026-05-06 17:11 51.37858 3.22742 35946 ft 429 kts 288°
2026-05-06 17:12 51.39964 3.13807 35941 ft 429 kts 288°
2026-05-06 17:12 51.42066 3.04862 35945 ft 429 kts 288°
2026-05-06 17:13 51.44169 2.95914 35942 ft 429 kts 288°
2026-05-06 17:13 51.46261 2.86972 35952 ft 429 kts 288°
2026-05-06 17:14 51.48353 2.78007 35950 ft 429 kts 288°
2026-05-06 17:14 51.50428 2.69040 35947 ft 429 kts 288°
2026-05-06 17:15 51.52503 2.60058 35949 ft 429 kts 288°
2026-05-06 17:15 51.54573 2.51072 35599 ft 429 kts 288°
2026-05-06 17:15 51.55604 2.46577 35317 ft 429 kts 288°
2026-05-06 17:16 51.56637 2.42057 34566 ft 431 kts 287°
2026-05-06 17:16 51.57665 2.37559 34080 ft 427 kts 288°
2026-05-06 17:16 51.58691 2.33074 33453 ft 425 kts 288°
2026-05-06 17:16 51.59700 2.28649 32927 ft 420 kts 288°
2026-05-06 17:17 51.60699 2.24247 32381 ft 416 kts 287°
2026-05-06 17:17 51.61685 2.19880 31841 ft 413 kts 287°
2026-05-06 17:17 51.62660 2.15552 31305 ft 410 kts 287°
2026-05-06 17:17 51.63628 2.11249 30786 ft 407 kts 287°
2026-05-06 17:18 51.64591 2.06973 30266 ft 405 kts 287°
2026-05-06 17:18 51.65547 2.02729 29711 ft 402 kts 287°
2026-05-06 17:18 51.66482 1.98563 29211 ft 398 kts 287°
2026-05-06 17:18 51.67413 1.94395 28708 ft 393 kts 287°
2026-05-06 17:19 51.68329 1.90279 28241 ft 389 kts 287°
2026-05-06 17:19 51.69237 1.86195 27764 ft 385 kts 287°
2026-05-06 17:19 51.70133 1.82160 27314 ft 380 kts 287°
2026-05-06 17:19 51.71016 1.78167 26857 ft 376 kts 287°
2026-05-06 17:20 51.71892 1.74212 26432 ft 372 kts 287°
2026-05-06 17:20 51.72759 1.70302 25995 ft 368 kts 288°
2026-05-06 17:20 51.73615 1.66431 25564 ft 365 kts 287°
2026-05-06 17:20 51.74310 1.62520 25118 ft 360 kts 278°
2026-05-06 17:21 51.74542 1.58522 24636 ft 359 kts 268°
2026-05-06 17:21 51.74350 1.54487 24079 ft 360 kts 262°
2026-05-06 17:21 51.74086 1.50470 23540 ft 361 kts 263°
2026-05-06 17:21 51.73828 1.46487 22927 ft 361 kts 263°
2026-05-06 17:22 51.73567 1.42477 22414 ft 359 kts 263°
2026-05-06 17:22 51.73307 1.38483 21865 ft 358 kts 263°
2026-05-06 17:22 51.73045 1.34481 21331 ft 357 kts 263°
2026-05-06 17:22 51.72784 1.30502 20787 ft 357 kts 263°
2026-05-06 17:23 51.72522 1.26517 20258 ft 357 kts 263°
2026-05-06 17:23 51.72257 1.22543 19721 ft 357 kts 263°
2026-05-06 17:23 51.71991 1.18567 19187 ft 357 kts 263°
2026-05-06 17:23 51.71726 1.14577 18647 ft 358 kts 264°
2026-05-06 17:24 51.71461 1.10595 18186 ft 356 kts 264°
2026-05-06 17:24 51.71193 1.06630 17634 ft 355 kts 264°
2026-05-06 17:24 51.70920 1.02668 17038 ft 356 kts 264°
2026-05-06 17:24 51.70647 0.98739 16701 ft 349 kts 264°
2026-05-06 17:25 51.70379 0.94849 16208 ft 348 kts 264°
2026-05-06 17:25 51.70111 0.90989 15788 ft 345 kts 264°
2026-05-06 17:25 51.69844 0.87148 15316 ft 344 kts 264°
2026-05-06 17:25 51.69580 0.83373 14878 ft 342 kts 264°
2026-05-06 17:26 51.69314 0.79564 14429 ft 341 kts 264°
2026-05-06 17:26 51.69046 0.75783 14014 ft 339 kts 264°
2026-05-06 17:26 51.68777 0.72028 13584 ft 336 kts 265°
2026-05-06 17:26 51.68512 0.68317 13114 ft 334 kts 264°
2026-05-06 17:27 51.68247 0.64607 12660 ft 332 kts 264°
2026-05-06 17:27 51.67983 0.60922 12192 ft 330 kts 265°
2026-05-06 17:27 51.67716 0.57231 11756 ft 327 kts 264°
2026-05-06 17:27 51.67455 0.53627 11321 ft 325 kts 264°
2026-05-06 17:28 51.67195 0.50054 11117 ft 315 kts 265°
2026-05-06 17:28 51.66945 0.46618 10987 ft 303 kts 265°
2026-05-06 17:28 51.66702 0.43297 10790 ft 295 kts 265°
2026-05-06 17:28 51.66466 0.40028 10451 ft 293 kts 264°
2026-05-06 17:29 51.66232 0.36781 10107 ft 291 kts 265°
2026-05-06 17:29 51.65998 0.33608 9583 ft 287 kts 265°
2026-05-06 17:29 51.65759 0.30384 8864 ft 285 kts 264°
2026-05-06 17:29 51.65523 0.27228 8169 ft 284 kts 264°
2026-05-06 17:30 51.65282 0.24077 7496 ft 282 kts 263°
2026-05-06 17:30 51.65046 0.21023 7282 ft 269 kts 263°
2026-05-06 17:30 51.64825 0.18124 7159 ft 258 kts 263°
2026-05-06 17:30 51.64614 0.15315 7046 ft 248 kts 263°
2026-05-06 17:31 51.64432 0.12570 7000 ft 246 kts 265°
2026-05-06 17:31 51.64281 0.09827 7000 ft 245 kts 265°
2026-05-06 17:31 51.64137 0.07097 7001 ft 245 kts 265°
2026-05-06 17:31 51.63994 0.04350 7001 ft 246 kts 265°
2026-05-06 17:32 51.63847 0.01574 7001 ft 246 kts 265°
2026-05-06 17:32 51.63693 -0.01263 7063 ft 266 kts 266°
2026-05-06 17:32 51.63501 -0.04225 7046 ft 271 kts 265°
2026-05-06 17:32 51.63298 -0.07241 7046 ft 272 kts 265°
2026-05-06 17:33 51.63096 -0.10271 7049 ft 272 kts 265°
2026-05-06 17:33 51.62886 -0.13293 7048 ft 272 kts 264°
2026-05-06 17:33 51.62675 -0.16307 7054 ft 272 kts 265°
2026-05-06 17:33 51.62457 -0.19339 7056 ft 272 kts 265°
2026-05-06 17:34 51.62232 -0.22364 7054 ft 272 kts 263°
2026-05-06 17:34 51.62020 -0.25385 7052 ft 272 kts 265°
2026-05-06 17:34 51.61800 -0.28408 7057 ft 272 kts 265°
2026-05-06 17:34 51.61592 -0.31439 6998 ft 272 kts 265°
2026-05-06 17:35 51.61389 -0.34475 7003 ft 272 kts 265°
2026-05-06 17:35 51.61175 -0.37496 7001 ft 272 kts 265°
2026-05-06 17:35 51.60963 -0.40529 7002 ft 272 kts 265°
2026-05-06 17:36 51.60513 -0.46575 7002 ft 272 kts 264°
2026-05-06 17:36 51.60297 -0.49586 7001 ft 265 kts 265°
2026-05-06 17:36 51.60088 -0.52439 6998 ft 248 kts 265°
2026-05-06 17:36 51.59896 -0.55113 7000 ft 233 kts 265°
2026-05-06 17:37 51.59715 -0.57683 7000 ft 230 kts 265°
2026-05-06 17:37 51.59524 -0.60231 7002 ft 229 kts 265°
2026-05-06 17:37 51.59329 -0.62783 6996 ft 230 kts 265°
2026-05-06 17:37 51.59139 -0.65327 6897 ft 228 kts 266°
2026-05-06 17:38 51.58938 -0.67861 6584 ft 228 kts 265°
2026-05-06 17:38 51.58733 -0.70380 6277 ft 227 kts 264°
2026-05-06 17:38 51.58539 -0.72901 5960 ft 226 kts 265°
2026-05-06 17:38 51.58157 -0.75340 5654 ft 228 kts 242°
2026-05-06 17:39 51.57066 -0.77168 5347 ft 228 kts 216°
2026-05-06 17:39 51.55725 -0.78525 5029 ft 228 kts 212°
2026-05-06 17:39 51.54301 -0.79612 4760 ft 229 kts 193°
2026-05-06 17:39 51.52736 -0.79873 4509 ft 228 kts 182°
2026-05-06 17:40 51.51152 -0.79913 4242 ft 228 kts 175°
2026-05-06 17:40 51.49688 -0.79085 3974 ft 223 kts 140°
2026-05-06 17:40 51.48615 -0.77371 3704 ft 214 kts 128°
2026-05-06 17:40 51.47871 -0.75380 3479 ft 203 kts 106°
2026-05-06 17:41 51.47647 -0.73930 3299 ft 194 kts 93°
2026-05-06 17:41 51.47633 -0.71137 2936 ft 187 kts 86°
2026-05-06 17:41 51.47637 -0.69064 2673 ft 186 kts 86°
2026-05-06 17:41 51.47640 -0.67010 2429 ft 183 kts 85°
2026-05-06 17:42 51.47667 -0.65634 2273 ft 182 kts 84°
2026-05-06 17:42 51.47674 -0.63600 2045 ft 182 kts 87°
2026-05-06 17:42 51.47681 -0.61587 1796 ft 178 kts 84°
2026-05-06 17:42 51.47707 -0.59659 1543 ft 174 kts 86°
2026-05-06 17:43 51.47723 -0.57708 1304 ft 172 kts 85°
2026-05-06 17:43 51.47712 -0.55790 1067 ft 167 kts 86°
2026-05-06 17:43 51.47719 -0.54011 836 ft 157 kts 85°
2026-05-06 17:43 51.47729 -0.52286 615 ft 150 kts 84°
2026-05-06 17:44 51.47741 -0.50646 403 ft 149 kts 82°
2026-05-06 17:44 51.47747 -0.48983 193 ft 148 kts 86°
2026-05-06 17:44 51.47755 -0.47369 90 ft 131 kts 89°
2026-05-06 17:44 51.47759 -0.46145 88 ft 87 kts 90°
2026-05-06 17:45 51.47762 -0.45408 85 ft 45 kts 90°
2026-05-06 17:45 51.47708 -0.45181 91 ft 16 kts 162°
2026-05-06 17:45 51.47615 -0.45176 89 ft 4 kts 180°
2026-05-06 17:45 51.47611 -0.45176 89 ft 0 kts 180°
2026-05-06 17:47 51.47610 -0.45176 88 ft 1 kts 180°
2026-05-06 17:47 51.47569 -0.45176 87 ft 11 kts 180°
2026-05-06 17:47 51.47509 -0.45105 88 ft 11 kts 102°
2026-05-06 17:47 51.47508 -0.44983 89 ft 11 kts 89°
2026-05-06 17:48 51.47508 -0.44852 89 ft 13 kts 90°
2026-05-06 17:48 51.47511 -0.44702 89 ft 14 kts 87°
2026-05-06 17:48 51.47473 -0.44563 86 ft 15 kts 162°
2026-05-06 17:48 51.47375 -0.44559 85 ft 13 kts 180°
2026-05-06 17:49 51.47280 -0.44558 85 ft 15 kts 180°
2026-05-06 17:49 51.47149 -0.44557 85 ft 21 kts 180°
2026-05-06 17:49 51.47007 -0.44559 85 ft 19 kts 180°
2026-05-06 17:49 51.46884 -0.44556 85 ft 11 kts 181°
2026-05-06 17:50 51.46859 -0.44641 87 ft 8 kts 268°
2026-05-06 17:50 51.46858 -0.44675 88 ft 0 kts 267°